Weather History for Martinsburg, WV

Change the Weather History Date:

Saturday, December 1, 2012

  Actual Average Record
Temperature  
Mean Temperature 39 °F 39 °F  
Max Temperature 49 °F 48 °F 74 °F (2006)
Min Temperature 29 °F 30 °F 7 °F (1929)
Degree Days  
Heating Degree Days 26 26  
Month to date heating degree days 26 26  
Since 1 July heating degree days 1135 1096  
Cooling Degree Days 0 0  
Month to date cooling degree days 0 0  
Year to date cooling degree days 1145 895  
Moisture  
Dew Point 32 °F    
Average Humidity 79    
Maximum Humidity 96    
Minimum Humidity 61    
Precipitation  
Precipitation 0.00 in 0.10 in 3.75 in (1974)
Month to date precipitation 0.00 0.10  
Year to date precipitation 29.40 36.09  
Sea Level Pressure  
Sea Level Pressure 30.40 in    
Wind  
Wind Speed 3 mph (NNE)    
Max Wind Speed 7 mph    
Max Gust Speed 8 mph    
Visibility 5 miles    
Events      
T = Trace of Precipitation, MM = Missing Value Source: NWS Daily Summary

Daily Weather History Graph

Daily Weather History Graph

Search for Another Location

Airport:

Trip Planner

Search our weather history database for the weather conditions in past years. The results will help you decide how hot, cold, wet, or windy it might be!

Date:

Astronomy

Dec. 01, 2012 Rise Set
Actual Time 7:13 AM EST 4:48 PM EST
Civil Twilight 6:43 AM EST 5:18 PM EST
Nautical Twilight 6:10 AM EST 5:51 PM EST
Astronomical Twilight 5:37 AM EST 6:24 PM EST
Moon 7:36 PM EST (12/1) 9:25 AM EST (12/1)
Length of Visible Light 10h 34m
Length of Day
9h 35m
Waning Gibbous, 92% of the Moon is Illuminated
Dec 1
Waning Gibbous
Dec 6
Last Quarter
Dec 13
New
Dec 20
First Quarter
Dec 28
Full

Hourly Weather History & Observations

Time (EST) Temp. Windchill Dew Point Humidity Pressure Visibility Wind Dir Wind Speed Gust Speed Precip Events Conditions
12:53 AM 39.0 °F 36.8 °F 28.9 °F 67% 30.35 in 10.0 mi NNW 3.5 mph - N/A   Clear
1:53 AM 35.1 °F 32.2 °F 28.0 °F 76% 30.36 in 9.0 mi NNE 3.5 mph - N/A   Clear
2:53 AM 33.1 °F - 26.1 °F 75% 30.35 in 8.0 mi Calm Calm - N/A   Clear
3:53 AM 32.0 °F 28.7 °F 26.1 °F 79% 30.36 in 7.0 mi NNE 3.5 mph - N/A   Clear
5:53 AM 32.0 °F - 26.1 °F 79% 30.40 in 7.0 mi Calm Calm - N/A   Clear
7:53 AM 33.1 °F 27.7 °F 27.0 °F 78% 30.45 in 5.0 mi North 5.8 mph - N/A   Haze
8:53 AM 36.0 °F 33.3 °F 30.0 °F 79% 30.45 in 5.0 mi North 3.5 mph - N/A   Haze
10:53 AM 42.1 °F 40.2 °F 33.1 °F 70% 30.45 in 4.0 mi Variable 3.5 mph - N/A   Haze
11:53 AM 45.0 °F - 34.0 °F 65% 30.42 in 5.0 mi Calm Calm - N/A   Haze
12:53 PM 46.9 °F - 35.1 °F 63% 30.38 in 5.0 mi Variable 3.5 mph - N/A   Haze
1:53 PM 48.9 °F - 35.1 °F 59% 30.38 in 5.0 mi East 4.6 mph - N/A   Haze
2:53 PM 48.9 °F - 35.1 °F 59% 30.36 in 6.0 mi East 3.5 mph - N/A   Haze
3:53 PM 48.0 °F - 36.0 °F 63% 30.37 in 5.0 mi ENE 4.6 mph - N/A   Haze
4:53 PM 45.0 °F 43.5 °F 35.1 °F 68% 30.38 in 5.0 mi ESE 3.5 mph - N/A   Haze
5:53 PM 42.1 °F 40.2 °F 36.0 °F 79% 30.40 in 4.0 mi North 3.5 mph - N/A   Haze
6:53 PM 39.0 °F 34.0 °F 35.1 °F 86% 30.40 in 3.0 mi NNE 6.9 mph - N/A   Clear
7:53 PM 37.0 °F - 34.0 °F 89% 30.42 in 3.0 mi Calm Calm - N/A   Clear
8:53 PM 36.0 °F - 32.0 °F 86% 30.42 in 3.0 mi Calm Calm - N/A   Clear
9:00 PM 35.6 °F 32.8 °F 32.0 °F 87% 30.40 in 2.5 mi NE 3.5 mph - N/A   Clear
9:53 PM 34.0 °F 31.0 °F 32.0 °F 92% 30.40 in 2.5 mi NNW 3.5 mph - N/A   Clear
10:53 PM 35.1 °F - 32.0 °F 89% 30.40 in 2.5 mi Calm Calm - N/A   Clear
11:53 PM 34.0 °F - 30.9 °F 89% 30.40 in 2.0 mi Calm Calm - N/A   Clear